TimeGMT,TemperatureF,Dew PointF,Humidity,Sea Level PressureIn,VisibilityMPH,Wind Direction,Wind SpeedMPH,Gust SpeedMPH,PrecipitationIn,Events,Conditions,WindDirDegrees,DateUTC
12:00 AM,36,34,87,,,ESE,10.4,,,,,110,2014-03-08 00:00:00
1:00 AM,36,33,87,,,ESE,9.2,,,,,120,2014-03-08 01:00:00
2:00 AM,38,32,71,,,SE,15.0,,,,,130,2014-03-08 02:00:00
3:00 AM,40,32,65,,,SE,18.4,,,,,140,2014-03-08 03:00:00
4:00 AM,40,32,63,,,SE,17.3,,,,,140,2014-03-08 04:00:00
5:00 AM,40,33,68,,,SE,13.8,,,,,140,2014-03-08 05:00:00
6:00 AM,43,37,72,,,SSE,17.3,,,,,150,2014-03-08 06:00:00
6:20 AM,42.8,37.4,81,30.15,6.2,SE,17.3,-,N/A,,Partly Cloudy,140,2014-03-08 06:20:00
6:50 AM,42.8,39.2,87,30.15,6.2,SE,16.1,-,N/A,,Partly Cloudy,130,2014-03-08 06:50:00
7:00 AM,43,38,76,,,SSE,17.3,,,,,150,2014-03-08 07:00:00
7:20 AM,42.8,39.2,87,30.15,6.2,SE,13.8,-,N/A,,Partly Cloudy,130,2014-03-08 07:20:00
7:50 AM,44.6,39.2,81,30.12,-9999.0,ESE,12.7,-,N/A,,Clear,120,2014-03-08 07:50:00
8:00 AM,44,40,79,,,SE,13.8,,,,,140,2014-03-08 08:00:00
8:20 AM,44.6,41.0,87,30.12,-9999.0,SE,15.0,-,N/A,,Clear,130,2014-03-08 08:20:00
8:50 AM,46.4,42.8,87,30.12,-9999.0,SE,18.4,-,N/A,,Clear,130,2014-03-08 08:50:00
9:00 AM,46,42,82,,,SSE,19.6,,,,,150,2014-03-08 09:00:00
9:20 AM,48.2,44.6,87,30.12,6.2,SE,19.6,-,N/A,,Partly Cloudy,140,2014-03-08 09:20:00
9:50 AM,48.2,44.6,87,30.12,6.2,SSE,20.7,-,N/A,,Partly Cloudy,150,2014-03-08 09:50:00
10:00 AM,48,44,80,,,SSE,21.9,,,,,160,2014-03-08 10:00:00
10:50 AM,50.0,44.6,82,30.12,6.2,SSE,19.6,31.1,N/A,,Partly Cloudy,150,2014-03-08 10:50:00
11:00 AM,49,45,79,,,South,20.7,,,,,170,2014-03-08 11:00:00
11:20 AM,50.0,46.4,87,30.12,6.2,SSE,21.9,-,N/A,,Partly Cloudy,150,2014-03-08 11:20:00
11:50 AM,50.0,46.4,87,30.09,6.2,SE,18.4,-,N/A,,Partly Cloudy,140,2014-03-08 11:50:00
12:00 PM,50,46,79,,,SSE,19.6,,,,,150,2014-03-08 12:00:00
12:20 PM,50.0,46.4,87,30.09,6.2,SE,16.1,-,N/A,,Partly Cloudy,140,2014-03-08 12:20:00
12:50 PM,51.8,46.4,82,30.06,6.2,SSE,18.4,-,N/A,,Partly Cloudy,150,2014-03-08 12:50:00
1:00 PM,51,46,77,,,SSE,18.4,,,,,160,2014-03-08 13:00:00
1:20 PM,51.8,46.4,82,30.06,-9999.0,SSE,17.3,-,N/A,,Clear,150,2014-03-08 13:20:00
1:50 PM,53.6,46.4,77,30.06,6.2,SSE,19.6,-,N/A,,Partly Cloudy,150,2014-03-08 13:50:00
2:00 PM,53,45,66,,,SSE,18.4,,,,,160,2014-03-08 14:00:00
2:20 PM,53.6,46.4,77,30.04,6.2,SSE,20.7,-,N/A,,Partly Cloudy,160,2014-03-08 14:20:00
2:50 PM,53.6,44.6,72,30.04,6.2,SSE,15.0,-,N/A,,Partly Cloudy,150,2014-03-08 14:50:00
3:00 PM,54,44,60,,,South,13.8,,,,,170,2014-03-08 15:00:00
3:20 PM,53.6,44.6,72,30.04,6.2,SE,12.7,-,N/A,,Partly Cloudy,140,2014-03-08 15:20:00
3:50 PM,53.6,44.6,72,30.01,-9999.0,SE,15.0,-,N/A,,Clear,140,2014-03-08 15:50:00
4:00 PM,54,44,60,,,SSE,15.0,,,,,160,2014-03-08 16:00:00
4:20 PM,53.6,44.6,72,30.01,-9999.0,SE,15.0,-,N/A,,Clear,130,2014-03-08 16:20:00
4:50 PM,55.4,44.6,67,30.01,-9999.0,SSE,6.9,-,N/A,,Clear,150,2014-03-08 16:50:00
5:00 PM,55,44,56,,,SSE,6.9,,,,,160,2014-03-08 17:00:00
5:50 PM,51.8,44.6,76,30.01,-9999.0,SSE,11.5,-,N/A,,Clear,150,2014-03-08 17:50:00
6:00 PM,54,43,57,,,SSE,11.5,,,,,160,2014-03-08 18:00:00
6:20 PM,51.8,44.6,76,30.01,-9999.0,East,10.4,-,N/A,,Clear,90,2014-03-08 18:20:00
6:50 PM,48.2,42.8,82,30.01,-9999.0,SE,6.9,-,N/A,,Clear,140,2014-03-08 18:50:00
7:00 PM,50,44,73,,,SSE,10.4,,,,,150,2014-03-08 19:00:00
7:20 PM,50.0,44.6,82,30.01,-9999.0,SE,13.8,-,N/A,,Clear,130,2014-03-08 19:20:00
7:50 PM,50.0,42.8,76,30.01,-9999.0,SE,11.5,-,N/A,,Clear,140,2014-03-08 19:50:00
8:00 PM,49,42,70,,,SSE,12.7,,,,,150,2014-03-08 20:00:00
8:50 PM,50.0,42.8,76,30.01,-9999.0,SSE,18.4,-,N/A,,Clear,160,2014-03-08 20:50:00
9:00 PM,51,41,60,,,South,16.1,,,,,170,2014-03-08 21:00:00
10:00 PM,50,41,62,,,South,17.3,,,,,170,2014-03-08 22:00:00
11:00 PM,49,40,62,,,SSE,15.0,,,,,160,2014-03-08 23:00:00